Погода Столб Остров

Погода Столб Остров : погода сейчас, прогноз погоды и архив. Всё, что Вы хотите узнать о погоде Столб Остров!

Поиск расширенной информации на нашем сайте:

Другие новости

Новости СМИ2

Главная страница сайта

Новости сайта

03.07.2017

Напоминаем, что на нашем специализированном сайте Метеоцентр.Азия вы можете получить высокодетализированные автоматические прогнозы погоды по пунктам России, СНГ и мира в авиационном формате (включающие направление и скорость ветра, видимость, явления погоды, количество и форму облачности, нижнюю и верхнюю границу облачности).


Погода Столб Остров - сегодня

Время (UTC), дата Ветер
(°,м/с) 
Видим.   Явления Облачность Т
(°С)
Тd
(°С)
f(%) Тe
(°С)
Pmin
(гПа)
dP
(гПа)
Po
(мм)
O2
(г/м3)
Тmin Tmax R s Состояние
почвы
18 25.07.17 290 (З) 20000 м  в посл. час дождь  10/10 1000 м 
[Sc]
+6.6 +5.5 93 +5  1003.3  -0.5  751  294           
21 25.07.17 300 (СЗ) 20000 м    10/10 1000 м 
[Sc]
+5.4 +4.5 94 +4  1003.2  -0.1  751  296           
00 26.07.17 310 (СЗ) 20000 м    10/10 600 м 
[Sc|Ac trans]
+5.8 +3.9 88 +4  1003.3  0.1  751  296  +5.1    0.0    мокрая 
03 26.07.17 300 (СЗ) 20000 м    10/10 600 м 
[Sc|Ac trans]
+6.4 +3.6 82 +4  1003.3  751  295           
06 26.07.17 310 (СЗ) 20000 м  в посл. час дождь  10/10 600 м 
[Sc]
+6 +3.1 82 +4  1003.8  0.5  751  296           
09 26.07.17 310 (СЗ) 20000 м  {ливн. осадки}  10/10 600 м 
[Sc]
+5.2 +3.3 88 +3  1004.3  0.5  751  297           
12 26.07.17 320 (СЗ) 20000 м  {ливн. осадки}  10/10 600 м 
[Sc]
+5 +1.2 76 +3  1004.7  0.4  752  297    +6.7  0.6     
15 26.07.17 330 (СЗ) 20000 м    9/9 600 м средняя 
[Sc|Ac trans]
+5 +2 81 +3  1004.9  0.2  752  297           
18 26.07.17 180 (Ю) 20000 м    10/4 600 м средняя 
[Sc|Ac As]
+4.2 +2.4 88 +3  1004.4  -0.5  752  298           
21 26.07.17 260 (З) 20000 м    10/10 1000 м 
[Sc]
+5.4 +3 84 +3  1004.1  -0.3  751  296           
03 27.07.17 300 (СЗ) 20000 м  осадки на расстоянии  9/9 600 м кучево-дожд. 
[Cb cap]
+6 +2.1 76 +4  1005  0.4  752  296           
06 27.07.17 290 (З) 7-10{12}  20000 м  слаб. ливневой дождь  9/9 600 м кучево-дожд. 
[Cb cap]
+5.2 +0.9 74 +2  1006.4  1.4  753  298           
09 27.07.17 310 (СЗ) 8-10{13}  20000 м  слаб. ливневой дождь  10/10 600 м кучево-дожд. 
[Cb cap]
+5 +1.5 78 +2  1007.1  0.7  754  298           
12 27.07.17 280 (З) 7-10{13}  20000 м  {ливн. осадки}  10/10 600 м 
[Sc diur, vesp]
+4.4 +1.9 84 +1  1008  0.9  754  299    +6.4  0.3     
15 27.07.17 240 (ЮЗ) 4{10}  20000 м    10/0 средняя, верхняя 
[Ac trans|Ci fib]
+2.7 +0.9 88 +1  1008  754  301           
21 27.07.17 260 (З) 10 км  слаб. дождь  10/10 600 м 
[Sc]
+4.8 +3.1 89 +3  1007.3  -0.3  754  298           
06 28.07.17 290 (З) 9-11{14}  20000 м  {дождь}  8/6 600 м верхняя 
[Sc|Ci fib]
+6.6 +3.8 82 +4  1009.3  0.8  755  297           
09 28.07.17 300 (СЗ) 9-12{14}  20000 м    10/10 600 м 
[Sc]
+5.3 +2.1 80 +2  1010.6  1.3  756  299           
12 28.07.17 280 (З) 7-10{13}  20000 м    10/0 средняя 
[Ac As]
+5.2 +2.8 84 +2  1011.1  0.5  757  299    +6.9  0.0     
15 28.07.17 270 (З) 6-10{11}  10 км  слаб. дождь  10/10 600 м 
[Sc]
+6.7 +5.3 91 +5  1010  -1.1  756  296           
18 28.07.17 290 (З) 8-11{13}  20000 м  {дождь}  10/10 600 м 
[Sc]
+5.8 +3.4 85 +3  1010.6  0.6  756  298           
21 28.07.17 290 (З) 6-10{11}  20000 м    10/8 600 м средняя 
[Sc|Ac trans]
+4 +2 87 +1  1011.7  1.1  757  300           
03 29.07.17 290 (З) 20000 м    10/3 1000 м средняя 
[Sc|Ac und]
+7 +2.7 74 +7  1012.1  -0.6  757  297           
06 29.07.17 170 (Ю) 20000 м  слаб. дождь  10/8 1000 м средняя 
[Sc|Ac As]
+8.2 +5.5 83 +7  1011.3  -0.8  757  295           
09 29.07.17 150 (ЮВ) 10 км  слаб. дождь  10/0 средняя 
[As op]
+10.4 +7.5 82 +10  1010  -1.3  756  292           
Время (UTC), дата Ветер
(°,м/с) 
Видим.   Явления Облачность Т
(°С)
Тd
(°С)
f(%) Тe
(°С)
Pmin
(гПа)
dP
(гПа)
Po
(мм)
O2
(г/м3)
Тmin Tmax R s Состояние
почвы

Для получения пояснительной информации подведите курсор к названию столбца.

ПОГОДА Столб Остров - архив

Всё, что Вы хотите узнать о погоде Столб Остров - удобно и подробно!

Выберите нужную дату (начиная с 1 января 2015* года) и нажмите кнопку "Найти".
Будут отображены архивные сводки погоды по пункту Столб Остров, начиная с указанной даты.


Отображать данные в формате CSV (для использования в таблицах Excel)


Внимание! Наш архив погоды предназначен исключительно для личного некоммерческого использования в познавательных целях. Если Вам необходимы официальные справки о состоянии погоды (для производственных, юридических, коммерческих и т.п. целей), обращайтесь в органы Росгидромета.

*Примечание: данная дата относится к архиву по метеостанциям СССР (Россия, СНГ, Балтия).
Архив по метеостанциям Зарубежной Европы и Азии (кроме Китая) хранится 10 дней, по другим регионам земного шара (Китай, Африка, Америка, Австралия, Океания) - 1 день.

Столб Остров - район местоположения метеостанции


Название, широта, долгота, высота метеостанции:
Столб Остров 72.4°ш. 126.5°д. 26 м над ур. моря [Российская Федерация]

Дополнительная информация

В oтличие oт бoльшинства пoгoдных сайтoв мы публикуем пoдрoбную метеoинфoрмацию в детальнoм прoфессиoнальнoм фoрмате.

Характеристики температуры и влажнoсти вoздуха измеряются на высoте 2 м в тени вдали oт зданий и деревьев.
Скoрoсть ветра измеряется на высoте 10 м (на урoвне рoста челoвека скoрoсть ветра ниже в 1.5-2 раза). Если метеoстанция нахoдится в гoрoде или в лесу, тo скoрoсть ветра занижена на 2-4 м/с пo сравнению с oткрытым местoм. Скoрoсть ветра над акватoриями крупных рек и oзёр, а также на вершинах хoлмoв на 2-5 м/с выше, чем в oбычных услoвиях.
Атмoсфернoе давление в разных тoчках местнoсти мoжет значительнo oтличаться oт давления на метеoстанции, в зависимoсти oт услoвий рельефа (при пoдъёме на 10 м давление пoнижается примернo на 1 мм рт.ст.).